Flag for Gaza Strip Weather past 2 weeks in Gaza, Gaza Strip

Now
81 °F

Passing clouds.


Feels Like: 84 °F
Forecast: 78 / 89 °F
Wind: 7 mph from South

Location: Ben Gurion International Airport

Current Time: Aug 30, 2015 at 12:41:58 AM

Latest Report: Aug 30, 2015 at 12:20 AM


Visibility: N/A

Pressure: 29.86 "Hg

Humidity: 70%

Dew point: 70 °F

Location of GazaLocation

Historic Weather in Gaza — Graph

°F

Gaza temperature yesterday

Maximum temperature yesterday: 90 °F (at 11:50 AM)
Minimum temperature yesterday: 75 °F (at 4:50 AM)
Average temperature yesterday: 83 °F

Past Weeks' High & Low Weather Summary

 TemperatureHumidityPressure
High100 °F (Aug 16, 2:20 PM)84% (Aug 15, 1:50 AM)29.89 "Hg (Aug 15, 1:50 AM)
Low75 °F (Aug 26, 4:20 AM)40% (Aug 16, 8:50 AM)29.71 "Hg (Aug 16, 2:20 PM)
Average84 °F64%29.79 "Hg
* Reported Aug 14 11:20 PM — Aug 29 11:20 PM, Gaza, Weather by CustomWeather, © 2015

Note: Actual official high and low records may vary slightly from our data, if they occured in-between our weather recording intervals... More about our weather records

Advertising

Gaza weather history for previous 24 hours

 ConditionsComfort  
Time TempWeatherWind HumidityBarometerVisibility
11:20 PM
Sat, Aug 29
81 °FPassing clouds.7 mph70%29.86 "HgN/A
10:50 PM82 °FPassing clouds.1 mph70%29.86 "HgN/A
10:20 PM82 °FPassing clouds.3 mph70%29.86 "HgN/A
9:50 PM82 °FPassing clouds.1 mph70%29.86 "HgN/A
9:20 PM82 °FPassing clouds.2 mph70%29.86 "HgN/A
8:50 PM82 °FClear.5 mph70%29.86 "Hg10 mi
8:20 PM82 °FClear.7 mph70%29.86 "Hg10 mi
7:50 PM84 °FSunny.9 mph62%29.83 "Hg10 mi
7:20 PM84 °FSunny.10 mph62%29.83 "Hg10 mi
6:50 PM84 °FSunny.10 mph62%29.83 "Hg10 mi
6:20 PM86 °FSunny.12 mph59%29.83 "Hg10 mi
5:50 PM86 °FSunny.12 mph55%29.83 "Hg10 mi
5:20 PM88 °FSunny.13 mph55%29.83 "Hg10 mi
4:50 PM88 °FPassing clouds.13 mph52%29.83 "HgN/A
4:20 PM88 °FPassing clouds.14 mph52%29.83 "HgN/A
3:50 PM88 °FPassing clouds.13 mph55%29.83 "HgN/A
3:20 PM90 °FPassing clouds.15 mph52%29.83 "HgN/A
2:50 PM90 °FPassing clouds.14 mph49%29.86 "HgN/A
2:20 PM90 °FSunny.14 mph46%29.86 "Hg10 mi
1:50 PM90 °FSunny.14 mph46%29.86 "Hg10 mi
1:20 PM90 °FSunny.13 mph46%29.86 "Hg10 mi
12:50 PM90 °FPassing clouds.13 mph49%29.86 "HgN/A
12:20 PM88 °FPassing clouds.9 mph52%29.86 "HgN/A
11:50 AM90 °FPassing clouds.10 mph49%29.86 "HgN/A
11:20 AM88 °FPassing clouds.8 mph52%29.89 "HgN/A
10:50 AM88 °FPassing clouds.7 mph49%29.89 "HgN/A
10:20 AM88 °FPassing clouds.5 mph52%29.89 "HgN/A
9:50 AM86 °FPassing clouds.5 mph59%29.89 "HgN/A
8:50 AM82 °FSunny.1 mph70%29.89 "Hg10 mi
8:20 AM81 °FSunny.5 mph74%29.89 "Hg10 mi
7:50 AM79 °FSunny.5 mph74%29.89 "Hg10 mi
7:20 AM77 °FSunny.3 mph79%29.89 "Hg10 mi
6:50 AM75 °FPassing clouds.5 mph83%29.86 "HgN/A
5:50 AM75 °FClear.2 mph78%29.86 "Hg10 mi
5:20 AM75 °FClear.2 mph83%29.86 "Hg10 mi
4:50 AM75 °FPassing clouds.3 mph78%29.86 "HgN/A
4:20 AM77 °FPassing clouds.3 mph79%29.86 "HgN/A
3:50 AM77 °FPassing clouds.3 mph79%29.86 "HgN/A
3:20 AM77 °FPassing clouds.3 mph79%29.86 "HgN/A
2:50 AM77 °FPassing clouds.3 mph79%29.86 "HgN/A
2:20 AM79 °FPassing clouds.1 mph74%29.89 "HgN/A
1:50 AM79 °FPassing clouds.3 mph74%29.89 "HgN/A
1:20 AM79 °FPassing clouds.3 mph74%29.89 "HgN/A
12:50 AM81 °FPassing clouds.3 mph70%29.89 "HgN/A
12:20 AM82 °FPassing clouds.2 mph70%29.89 "HgN/A
Weather by CustomWeather, © 2015

See weather overviewHow to use our weather pages